Tracking 25378 objects as of 22-Jan-2022
HD Live streaming from Space Station
objects crossing your sky now

GALS 2

Track GALS 2 now!
GALS 2 is classified as:


NORAD ID: 23717
Int'l Code: 1995-063A
Perigee: 35,867.4 km
Apogee: 35,943.1 km
Inclination: 14.0 °
Period: 1,441.8 minutes
Semi major axis: 42276 km
RCS: 8.9125 m2 (large)
Launch date: November 17, 1995
Source: Commonwealth of Independent States (former USSR) (CIS)
Launch site: TYURATAM MISSILE AND SPACE COMPLEX (TTMTR)
aabbcc
Your satellite tracking list
Your tracking list is empty




NASA's NSSDC Master Catalog

Two Line Element Set (TLE):
1 23717U 95063A   22021.48130316 -.00000066  00000-0  00000-0 0  9999
2 23717  13.9627  14.5541 0008944 322.2085  37.6639  0.99875310 95568
Source of the keplerian elements: AFSPC